Location: Goettingen
(51.5300°N, 9.9433°E)
Time: 19:54:27
(UTC+01:00)

ISS - Pass Details

Date: 12 December 2017
Orbit: 402 x 407 km, 51.6° (Epoch: 11 December)

Event Time Altitude Azimuth Distance (km) Brightness Sun altitude
Rises 18:53:41 0° 283° (WNW) 2,331 1.2 -23.9°
Reaches altitude 10° 18:56:02 10° 267° (W) 1,467 0.1 -24.3°
Enters shadow 18:58:40 22° 214° (SW) 933 -1.6 -24.7°
